Flag for Canada Weather past 2 weeks in Saguenay, Quebec, Canada

Now
31 °F

Chilly.


Feels Like: 22 °F
Forecast: 29 / 45 °F
Wind: 10 mph from Northwest

Location: Jonquiere Airport

Current Time: Apr 19, 2015 at 6:10:24 AM

Latest Report: Apr 19, 2015 at 5:00 AM


Visibility: N/A

Pressure: 30.26 "Hg

Humidity: 81%

Dew point: 26 °F

Location of SaguenayLocation

Historic Weather in Saguenay — Graph

°F

Saguenay temperature yesterday

Maximum temperature yesterday: 42 °F (at 2:00 PM)
Minimum temperature yesterday: 31 °F (at 6:00 AM)
Average temperature yesterday: 35 °F

Past Weeks' High & Low Weather Summary

 TemperatureHumidityPressure
High69 °F (Apr 13, 3:00 PM)100% (Apr 10, 11:00 AM)30.58 "Hg (Apr 10, 11:00 AM)
Low0 °F (Apr 6, 6:00 AM)18% (Apr 16, 6:00 PM)29.25 "Hg (Apr 11, 5:00 AM)
Average33 °F56%30.07 "Hg
* Reported Apr 4 5:00 AM — Apr 19 5:00 AM, Saguenay, Weather by CustomWeather, © 2015

Note: Actual official high and low records may vary slightly from our data, if they occured in-between our weather recording intervals... More about our weather records

Advertising

Saguenay weather history for previous 24 hours

 ConditionsComfort  
Time TempWeatherWind HumidityBarometerVisibility
5:00 AM
Sun, Apr 19
31 °FChilly.10 mph81%30.26 "HgN/A
4:00 AM32 °FChilly.13 mph90%30.25 "HgN/A
3:00 AM31 °FChilly.10 mph91%30.23 "HgN/A
2:00 AM34 °FChilly.13 mph88%30.21 "HgN/A
1:00 AM33 °FChilly.9 mph94%30.19 "HgN/A
12:00 AM33 °FChilly.9 mph95%30.18 "HgN/A
11:00 PM
Sat, Apr 18
33 °FChilly.9 mph96%30.16 "HgN/A
10:00 PM31 °FChilly.8 mph100%30.16 "HgN/A
9:00 PM31 °FChilly.8 mph100%30.15 "HgN/A
8:00 PM33 °FChilly.9 mph94%30.12 "HgN/A
7:00 PM33 °FChilly.10 mph91%30.09 "HgN/A
6:00 PM36 °FChilly.13 mph78%30.06 "HgN/A
5:00 PM40 °FChilly.12 mph57%30.02 "HgN/A
4:00 PM40 °FQuite cool.6 mph48%30.00 "HgN/A
3:00 PM40 °FQuite cool.6 mph48%29.99 "HgN/A
2:00 PM42 °FQuite cool.6 mph44%29.99 "HgN/A
1:00 PM40 °FQuite cool.5 mph46%30.00 "HgN/A
12:00 PM40 °FChilly.5 mph48%30.02 "HgN/A
11:00 AM39 °FChilly.2 mph51%30.02 "HgN/A
10:00 AM36 °FChilly.2 mph57%30.02 "HgN/A
9:00 AM36 °FChilly.3 mph59%30.02 "HgN/A
8:00 AM33 °FChilly.6 mph66%30.03 "HgN/A
7:00 AM32 °FChilly.7 mph68%30.03 "HgN/A
6:00 AM31 °FChilly.6 mph71%30.02 "HgN/A
Weather by CustomWeather, © 2015

See weather overviewHow to use our weather pages